K4GZX-11 Weather Reports


Display with metric or nautical units.
time (UTC)temp
F
wind
direction
speed
MPH
gust
MPH
rain 1hr
in
rain 24hr
in
rain mn
in
humidity
%
barometer
mb
20260508063252 55 172 0.0 0.0 0.00 0.93 0.00 83 1014.8
20260508062752 55 172 0.0 0.0 0.00 0.95 0.00 82 1014.8
20260508062252 55 172 0.0 0.0 0.00 0.97 0.00 82 1014.8
20260508061756 55 172 0.0 0.0 0.00 0.98 0.00 82 1014.7
20260508061304 55 172 0.0 0.0 0.00 1.00 0.00 82 1014.7
20260508060752 55 172 0.0 0.0 0.00 1.02 0.00 83 1014.7
20260508060252 55 172 0.0 0.0 0.00 1.04 0.00 83 1014.8
20260508055752 55 172 0.0 0.0 0.00 1.05 0.00 83 1014.8
20260508055252 55 172 0.0 0.0 0.00 1.07 0.00 82 1014.9
20260508054707 56 172 0.0 0.0 0.00 1.08 0.00 82 1014.9
20260508054207 56 172 0.0 0.0 0.00 1.09 0.00 82 1014.9
20260508053707 56 172 0.0 0.0 0.00 1.10 0.00 82 1014.9
20260508053207 56 172 0.0 0.0 0.00 1.11 0.00 82 1014.8
20260508052707 56 172 0.0 0.0 0.00 1.12 0.00 82 1014.8
20260508052207 56 172 0.0 0.0 0.00 1.13 0.00 81 1014.7
20260508051707 56 172 0.0 0.0 0.00 1.13 0.00 81 1014.8
20260508051207 56 172 0.0 0.0 0.00 1.14 0.00 81 1014.7
20260508050707 57 172 0.0 0.0 0.00 1.14 0.00 80 1014.7
20260508050212 57 172 0.0 0.0 0.00 1.14 0.00 79 1014.8
20260508045719 57 172 0.0 0.0 0.00 1.14 0.00 79 1014.8
20260508045207 57 172 0.0 0.0 0.00 1.14 0.00 78 1015.0
20260508044707 57 172 0.0 0.0 0.00 1.14 0.00 78 1014.8
20260508044207 58 172 0.0 0.0 0.00 1.14 0.00 78 1014.7
20260508043707 58 172 0.0 0.0 0.00 1.15 0.00 78 1014.8
20260508043207 58 172 0.0 0.0 0.00 1.15 0.00 78 1014.7
20260508042707 58 172 0.0 0.0 0.00 1.16 0.00 77 1014.8
20260508042207 58 172 0.0 0.0 0.00 1.17 0.00 77 1014.7
20260508041707 58 172 0.0 0.0 0.00 1.17 0.00 78 1014.6
20260508041207 58 172 0.0 0.0 0.00 1.18 0.00 78 1014.7
20260508040707 58 172 0.0 0.0 0.00 1.18 0.00 77 1014.6
20260508040207 59 172 0.0 0.0 0.00 1.18 0.00 77 1014.5
20260508035707 59 172 0.0 0.0 0.00 1.18 0.00 77 1014.5
20260508035207 59 172 0.0 0.0 0.00 1.18 0.00 77 1014.5
20260508034707 59 172 0.0 0.0 0.00 1.19 0.00 77 1014.5
20260508034207 59 172 0.0 0.0 0.00 1.21 0.00 76 1014.5
20260508033714 60 172 0.0 0.0 0.00 1.22 0.00 76 1014.5
20260508033221 60 172 0.0 0.0 0.00 1.23 0.00 76 1014.4
20260508032724 60 172 0.0 0.0 0.00 1.25 0.00 76 1014.6
20260508032231 60 172 0.0 0.0 0.00 1.27 0.00 76 1014.4
20260508031711 60 172 0.0 0.0 0.00 1.28 0.00 76 1014.5
20260508031219 60 172 0.0 0.0 0.00 1.30 0.00 76 1014.5
20260508030707 60 172 0.0 0.0 0.00 1.32 0.00 75 1014.4
20260508030207 60 172 0.0 0.0 0.00 1.34 0.00 75 1014.4
20260508025707 61 172 0.0 0.0 0.00 1.36 0.00 75 1014.4
20260508025207 61 172 0.0 0.0 0.00 1.39 0.00 75 1014.4
20260508024707 61 172 0.0 0.0 0.00 1.41 0.00 74 1014.2
20260508024212 61 172 0.0 0.0 0.00 1.44 0.00 74 1014.3
20260508023719 61 172 0.0 0.0 0.00 1.46 0.00 75 1014.2
20260508023207 61 172 0.0 0.0 0.00 1.49 0.00 74 1014.0
20260508022713 62 172 0.0 0.0 0.00 1.51 0.00 74 1013.9
20260508022221 62 172 0.0 0.0 0.00 1.54 0.00 73 1014.0
20260508021728 62 172 0.0 0.0 0.00 1.57 0.00 72 1013.9
20260508021236 62 172 0.0 0.0 0.00 1.60 0.00 73 1013.7
20260508020731 62 172 0.0 0.0 0.00 1.62 0.00 72 1013.8
20260508020207 63 172 0.0 0.0 0.00 1.65 0.00 72 1013.7
20260508015707 63 172 0.0 0.0 0.00 1.68 0.00 72 1013.7
20260508015207 63 172 0.0 0.0 0.00 1.70 0.00 71 1013.6
20260508014707 63 172 0.0 0.0 0.00 1.72 0.00 70 1013.6
20260508014207 63 172 0.0 0.0 0.00 1.75 0.00 70 1013.6
20260508013708 64 172 0.0 0.0 0.00 1.77 0.00 70 1013.6
20260508013216 64 172 0.0 0.0 0.00 1.79 0.00 73 1013.4
20260508012723 64 172 0.0 0.0 0.00 1.81 0.00 71 1013.2
20260508012219 64 172 0.0 0.0 0.00 1.83 0.00 70 1013.2
20260508011707 64 172 0.0 0.0 0.00 1.85 0.00 70 1013.0
20260508011211 65 172 0.0 0.0 0.00 1.87 0.00 70 1013.2
20260508010719 65 172 0.0 0.0 0.00 1.88 0.00 70 1013.1
20260508010207 65 172 0.0 0.0 0.00 1.90 0.00 70 1013.0
20260508005707 65 172 0.0 0.0 0.00 1.92 0.00 70 1013.0
20260508005207 66 172 0.0 0.0 0.00 1.94 0.00 70 1013.0
20260508004707 66 172 0.0 0.0 0.00 1.96 0.00 70 1012.9
20260508004207 66 172 0.0 0.0 0.00 1.98 0.00 69 1012.9
20260508003707 66 172 0.0 0.0 0.00 1.99 0.00 68 1012.7
20260508003207 67 172 0.0 0.0 0.00 2.00 0.00 68 1012.6
20260508002707 67 172 0.0 0.0 0.00 2.01 0.00 68 1012.7
20260508002207 67 172 0.0 0.0 0.00 2.03 0.00 69 1012.3
20260508001222 68 172 0.0 0.0 0.00 2.04 0.00 67 1012.1
20260508000722 68 172 0.0 0.0 0.00 2.04 0.00 66 1012.0
20260508000222 68 172 0.0 1.0 0.00 2.04 2.05 66 1011.9
20260507235722 69 172 0.0 1.0 0.00 2.04 2.05 66 1012.0
20260507235227 69 172 0.0 0.0 0.00 2.04 2.05 67 1011.8
20260507234734 69 172 0.0 1.0 0.00 2.04 2.05 66 1011.8
20260507234227 69 172 0.0 1.0 0.00 2.04 2.05 66 1011.7
20260507233734 70 172 0.0 0.0 0.00 2.04 2.05 66 1011.7
20260507233227 70 172 0.0 0.0 0.00 2.04 2.05 66 1011.5
20260507232734 70 172 0.0 1.0 0.00 2.04 2.05 64 1011.4
20260507232222 71 172 0.0 1.0 0.00 2.04 2.05 65 1011.3
20260507231726 71 172 0.0 1.0 0.00 2.04 2.05 65 1011.1
20260507231234 71 172 0.0 0.0 0.00 2.04 2.05 64 1011.1
20260507230722 72 172 0.0 0.0 0.00 2.04 2.05 64 1011.2
20260507230227 72 172 0.0 0.0 0.00 2.04 2.05 64 1011.1
20260507225734 72 172 0.0 0.0 0.00 2.04 2.05 65 1011.0
20260507225222 73 172 0.0 0.0 0.00 2.04 2.05 65 1010.8
20260507224722 73 172 0.0 0.0 0.00 2.04 2.05 64 1010.9
20260507224224 73 172 0.0 0.0 0.00 2.04 2.05 64 1010.9
20260507223731 73 172 0.0 0.0 0.00 2.04 2.05 65 1010.8
20260507223239 73 172 0.0 0.0 0.00 2.04 2.05 65 1010.8
20260507222734 74 172 0.0 0.0 0.00 2.04 2.05 64 1010.7
20260507222222 74 172 0.0 0.0 0.00 2.04 2.05 67 1010.6
20260507221722 74 172 0.0 1.0 0.00 2.04 2.05 65 1010.5
20260507221222 74 172 0.0 1.0 0.00 2.04 2.05 65 1010.5
20260507220722 74 172 0.0 0.0 0.00 2.04 2.05 65 1010.5
20260507220222 74 172 0.0 0.0 0.00 2.04 2.05 65 1010.5
20260507215722 74 172 0.0 0.0 0.00 2.04 2.05 64 1010.4
20260507215222 75 172 0.0 0.0 0.00 2.04 2.05 63 1010.3
20260507214722 75 172 0.0 0.0 0.00 2.04 2.05 64 1010.3
20260507214222 75 172 0.0 0.0 0.00 2.04 2.05 63 1010.3
20260507213722 75 172 0.0 0.0 0.00 2.04 2.05 63 1010.2
20260507213223 75 172 0.0 0.0 0.00 2.04 2.05 63 1010.1
20260507212722 76 172 0.0 0.0 0.00 2.04 2.05 63 1010.2
20260507212222 76 172 0.0 0.0 0.00 2.04 2.05 63 1010.2
20260507211722 76 172 0.0 0.0 0.00 2.04 2.05 63 1010.3
20260507211227 76 172 0.0 0.0 0.00 2.04 2.05 64 1010.1
20260507210734 76 172 0.0 0.0 0.00 2.04 2.05 65 1010.1
20260507210222 76 172 0.0 0.0 0.00 2.04 2.05 63 1010.1
20260507205722 76 172 0.0 0.0 0.00 2.04 2.05 62 1009.9
20260507205222 77 172 0.0 0.0 0.00 2.04 2.05 63 1010.0
20260507204722 77 172 0.0 0.0 0.00 2.04 2.05 63 1009.9
20260507204222 77 172 0.0 1.0 0.00 2.04 2.05 61 1009.9
20260507203722 77 172 0.0 1.0 0.00 2.04 2.05 62 1009.8
20260507203222 77 172 0.0 0.0 0.00 2.04 2.05 64 1009.9
20260507202722 77 172 0.0 0.0 0.00 2.04 2.05 65 1009.8
20260507202037 77 172 0.0 0.0 0.00 2.04 2.05 63 1009.8
20260507201530 77 172 0.0 0.0 0.00 2.04 2.05 64 1010.0
20260507201038 77 172 0.0 2.0 0.00 2.04 2.05 62 1009.8
20260507200545 78 172 0.0 2.0 0.00 2.04 2.05 64 1010.0
20260507200053 78 172 0.0 1.0 0.00 2.04 2.05 63 1010.0
20260507195548 78 172 0.0 0.0 0.00 2.04 2.05 63 1010.0
20260507195055 79 172 0.0 0.0 0.00 2.04 2.05 61 1010.0
20260507194603 79 172 0.0 0.0 0.00 2.04 2.05 64 1010.1
20260507194059 79 172 0.0 0.0 0.00 2.04 2.05 61 1010.1
20260507193542 79 172 0.0 4.0 0.00 2.04 2.05 64 1010.2
20260507193049 79 172 0.0 4.0 0.00 2.04 2.05 67 1010.3
20260507192525 79 172 0.0 1.0 0.00 2.04 2.05 67 1010.3
20260507192025 78 172 0.0 1.0 0.00 2.04 2.05 67 1010.3
20260507191525 78 172 0.0 1.0 0.00 2.04 2.05 70 1010.3
20260507191025 77 172 0.0 0.0 0.00 2.04 2.05 71 1010.2
20260507190525 77 172 0.0 0.0 0.00 2.04 2.05 70 1010.2
20260507190027 77 172 0.0 0.0 0.00 2.04 2.05 70 1010.2
20260507185534 77 172 0.0 0.0 0.00 2.04 2.05 72 1010.3
20260507185042 76 172 0.0 0.0 0.00 2.04 2.05 74 1010.3
20260507184537 76 172 0.0 0.0 0.00 2.04 2.05 74 1010.5
20260507184030 76 172 0.0 0.0 0.00 2.04 2.05 74 1010.3
20260507183537 0 0.0 0.0 0.00 2.04 2.05 1010.3
20260507183025 0 0.0 0.0 0.00 2.04 2.05 1010.3
20260507182529 0 0.0 0.0 0.00 2.04 2.05 1010.4
20260507182037 0 0.0 0.0 0.00 2.04 2.05 1010.3
20260507181525 0 0.0 0.0 0.00 2.04 2.05 1010.5
20260507181030 0 0.0 0.0 0.00 2.04 2.05 1010.5
20260507180537 0 0.0 0.0 0.00 2.04 2.05 1010.5
20260507180025 0 0.0 0.0 0.00 2.04 2.05 1010.5
20260507175525 0 0.0 0.0 0.00 2.04 2.05 1010.6
20260507175026 0 0.0 0.0 0.00 2.04 2.05 1010.6
20260507174525 0 0.0 0.0 0.00 2.04 2.05 1010.6
20260507174025 0 0.0 0.0 0.00 2.04 2.05 1010.6
20260507173525 0 0.0 0.0 0.00 2.04 2.05 1010.5
20260507173025 70 0.0 0.0 0.00 2.04 2.05 1010.5
20260507172527 70 172 0.0 0.0 0.00 2.04 2.05 88 1010.6
20260507172034 70 172 0.0 0.0 0.00 2.04 2.05 88 1010.8
20260507171542 70 172 0.0 0.0 0.00 2.04 2.05 88 1010.8
20260507171049 70 172 0.0 0.0 0.00 2.04 2.05 88 1010.8
20260507170525 70 172 0.0 0.0 0.00 2.04 2.05 88 1010.7
20260507170026 69 172 0.0 0.0 0.00 2.04 2.05 88 1010.6
20260507165527 69 172 0.0 0.0 0.00 2.04 2.05 88 1010.6
20260507165034 68 172 0.0 0.0 0.00 2.04 2.05 88 1010.8
20260507164542 69 172 0.0 0.0 0.01 2.04 2.05 88 1010.9
20260507164049 69 172 0.0 0.0 0.01 2.04 2.05 88 1010.8
20260507163525 69 172 0.0 0.0 0.02 2.04 2.05 88 1010.7
20260507163025 69 172 0.0 0.0 0.02 2.04 2.05 88 1010.7
20260507162525 69 172 0.0 0.0 0.03 2.04 2.05 88 1010.7
20260507162025 68 172 0.0 0.0 0.04 2.04 2.05 88 1010.7
20260507161525 68 172 0.0 0.0 0.05 2.04 2.05 88 1010.7
20260507161027 68 172 0.0 0.0 0.06 2.04 2.05 88 1010.7
20260507160534 68 172 0.0 0.0 0.07 2.04 2.05 88 1010.4
20260507160042 67 172 0.0 0.0 0.08 2.04 2.05 88 1010.6
20260507155537 67 172 0.0 0.0 0.09 2.04 2.05 88 1010.9
20260507155030 67 172 0.0 0.0 0.10 2.04 2.05 88 1010.9
20260507154537 67 172 0.0 0.0 0.11 2.03 2.04 88 1011.1
20260507154030 67 172 0.0 0.0 0.12 2.03 2.04 88 1011.0
20260507153537 66 172 0.0 0.0 0.12 2.02 2.03 88 1011.1
20260507153027 66 172 0.0 0.0 0.14 2.02 2.03 88 1011.3
20260507152534 66 172 0.0 0.0 0.14 2.01 2.02 88 1011.5
20260507152042 66 172 0.0 0.0 0.15 2.00 2.01 88 1011.5
20260507151549 66 172 0.0 0.0 0.15 1.99 2.00 88 1011.4
20260507151025 65 172 0.0 0.0 0.15 1.98 1.99 88 1011.3
20260507150525 65 172 0.0 0.0 0.15 1.97 1.98 88 1011.1
20260507150025 65 172 0.0 0.0 0.16 1.96 1.97 88 1011.2
20260507145525 65 172 0.0 0.0 0.17 1.95 1.96 88 1011.0
20260507145025 65 172 0.0 0.0 0.17 1.94 1.95 88 1010.9
20260507144525 65 172 0.0 0.0 0.17 1.92 1.93 88 1011.3
20260507144025 65 172 0.0 0.0 0.17 1.91 1.92 88 1011.4
20260507143525 65 172 0.0 0.0 0.18 1.90 1.91 88 1011.6
20260507143030 65 172 0.0 0.0 0.17 1.88 1.89 88 1011.7
20260507142537 65 172 0.0 0.0 0.18 1.87 1.88 88 1011.2
20260507142025 65 172 0.0 0.0 0.18 1.85 1.86 88 1011.3
20260507141525 65 172 0.0 0.0 0.19 1.84 1.85 88 1011.1
20260507140852 65 172 0.0 0.0 0.20 1.83 1.83 88 1010.4
20260507140352 65 172 0.0 0.0 0.20 1.81 1.81 88 1010.6
20260507135852 65 172 0.0 0.0 0.21 1.80 1.80 88 1010.9
20260507135352 65 172 0.0 0.0 0.20 1.78 1.78 88 1010.6
20260507134856 65 172 0.0 0.0 0.21 1.77 1.77 88 1010.9
20260507134403 64 172 0.0 0.0 0.20 1.75 1.75 88 1011.3
20260507133910 64 172 0.0 0.0 0.19 1.73 1.73 88 1011.3
20260507133418 64 172 0.0 0.0 0.19 1.72 1.72 88 1010.9
20260507132902 64 172 0.0 0.0 0.17 1.70 1.70 88 1010.8
20260507132409 64 172 0.0 0.0 0.16 1.68 1.68 88 1010.6
20260507131906 64 172 0.0 0.0 0.16 1.67 1.67 88 1010.9
20260507131352 64 172 0.0 0.0 0.15 1.65 1.65 88 1011.3
20260507130852 64 172 0.0 0.0 0.14 1.63 1.63 88 1011.6
20260507130352 64 172 0.0 0.0 0.13 1.61 1.61 88 1011.7
20260507125852 64 172 0.0 0.0 0.12 1.59 1.59 88 1011.7
20260507125352 64 172 0.0 0.0 0.12 1.58 1.58 88 1011.9
20260507124852 64 172 0.0 0.0 0.11 1.56 1.56 88 1011.8
20260507124356 64 172 0.0 0.0 0.12 1.55 1.55 88 1011.6
20260507123904 64 172 0.0 0.0 0.11 1.54 1.54 88 1011.2
20260507123357 64 172 0.0 0.0 0.12 1.53 1.53 88 1010.7
20260507122904 64 172 0.0 0.0 0.14 1.53 1.53 88 1010.5
20260507122352 64 172 0.0 0.0 0.13 1.52 1.52 88 1010.4
20260507121858 64 172 0.0 0.0 0.14 1.51 1.51 88 1010.5
20260507121406 64 172 0.0 0.0 0.13 1.50 1.50 88 1010.5
20260507120901 64 172 0.0 0.0 0.14 1.49 1.49 88 1010.4
20260507120409 64 172 0.0 0.0 0.14 1.48 1.48 88 1010.2
20260507115904 64 172 0.0 0.0 0.14 1.47 1.47 88 1010.2
20260507115357 64 172 0.0 0.0 0.14 1.46 1.46 88 1010.2
20260507114904 64 172 0.0 0.0 0.14 1.45 1.45 88 1010.0
20260507114352 64 172 0.0 0.0 0.13 1.43 1.43 88 1010.2
20260507113852 64 172 0.0 2.0 0.13 1.43 1.43 88 1010.0
20260507113352 64 172 0.0 5.0 0.12 1.41 1.41 87 1010.2
20260507112856 64 172 0.0 5.0 0.10 1.39 1.39 87 1010.7
20260507112404 64 172 0.0 0.0 0.11 1.39 1.39 87 1010.4
20260507111852 64 172 0.0 0.0 0.09 1.37 1.37 87 1009.8
20260507111352 64 172 0.0 0.0 0.10 1.37 1.37 87 1009.4
20260507110852 64 172 0.0 0.0 0.08 1.35 1.35 87 1009.1
20260507110352 64 172 0.0 0.0 0.07 1.34 1.34 88 1009.2
20260507105852 64 172 0.0 0.0 0.06 1.33 1.33 87 1009.2
20260507105352 64 172 0.0 0.0 0.05 1.32 1.32 87 1009.4
20260507104857 64 172 0.0 0.0 0.04 1.31 1.31 87 1009.7
20260507104404 64 172 0.0 0.0 0.03 1.30 1.30 87 1009.5
20260507103852 64 172 0.0 0.0 0.03 1.30 1.30 87 1009.5
20260507103027 64 172 0.0 0.0 0.02 1.29 1.29 87 1009.7
20260507102527 64 172 0.0 0.0 0.01 1.28 1.28 87 1009.7
20260507102027 64 172 0.0 0.0 0.01 1.28 1.28 87 1010.0
20260507101532 64 172 0.0 0.0 0.01 1.28 1.28 87 1010.1
20260507101039 64 172 0.0 0.0 0.00 1.27 1.27 87 1010.4
20260507100527 64 172 0.0 0.0 0.00 1.27 1.27 87 1010.4
20260507100027 64 172 0.0 0.0 0.00 1.27 1.27 87 1010.4
20260507095527 64 172 0.0 0.0 0.01 1.27 1.27 87 1010.5
20260507095027 64 172 0.0 0.0 0.02 1.27 1.27 87 1010.5
20260507094527 64 172 0.0 0.0 0.03 1.27 1.27 87 1010.4
20260507094028 64 172 0.0 0.0 0.03 1.27 1.27 87 1010.5
20260507093527 64 172 0.0 0.0 0.04 1.27 1.27 87 1010.6
20260507093032 64 172 0.0 0.0 0.05 1.27 1.27 87 1010.7
20260507092539 64 172 0.0 0.0 0.05 1.27 1.27 87 1010.8
20260507092027 64 172 0.0 0.0 0.05 1.27 1.27 87 1010.8
20260507091527 64 172 0.0 0.0 0.05 1.27 1.27 87 1010.9
20260507091033 64 172 0.0 0.0 0.05 1.27 1.27 87 1011.0
20260507090541 64 172 0.0 0.0 0.05 1.27 1.27 87 1010.9
20260507090036 64 172 0.0 0.0 0.05 1.27 1.27 87 1011.0
20260507085544 64 172 0.0 0.0 0.04 1.26 1.26 87 1010.8
20260507085051 64 172 0.0 0.0 0.03 1.25 1.25 87 1010.7
20260507084527 64 172 0.0 0.0 0.02 1.24 1.24 87 1010.8
20260507084027 64 172 0.0 0.0 0.02 1.24 1.24 87 1011.0
20260507083527 64 172 0.0 0.0 0.01 1.23 1.23 87 1011.0
20260507083027 64 172 0.0 0.0 0.00 1.22 1.22 87 1011.2
20260507082527 64 172 0.0 0.0 0.00 1.22 1.22 87 1011.4
20260507082031 64 172 0.0 0.0 0.00 1.22 1.22 87 1011.4
20260507081539 64 172 0.0 0.0 0.01 1.22 1.22 87 1011.4
20260507081027 64 172 0.0 0.0 0.01 1.22 1.22 87 1011.4
20260507080531 64 172 0.0 0.0 0.02 1.22 1.22 87 1011.6
20260507080039 64 172 0.0 0.0 0.03 1.22 1.22 87 1011.7
20260507075527 64 172 0.0 0.0 0.04 1.22 1.22 87 1011.6
20260507075027 64 172 0.0 0.0 0.06 1.22 1.22 87 1011.3
20260507074532 64 172 0.0 0.0 0.07 1.22 1.22 87 1011.2
20260507074039 64 172 0.0 0.0 0.08 1.22 1.22 87 1011.1
20260507073531 65 172 0.0 0.0 0.10 1.22 1.22 87 1011.1
20260507073039 65 172 0.0 0.0 0.11 1.22 1.22 87 1011.2
20260507072527 65 172 0.0 0.0 0.13 1.22 1.22 87 1011.0
20260507072027 65 172 0.0 0.0 0.15 1.22 1.22 87 1011.0
20260507071528 65 172 0.0 0.0 0.16 1.21 1.21 87 1011.1
20260507071036 65 172 0.0 0.0 0.18 1.21 1.21 87 1011.1
20260507070544 65 172 0.0 0.0 0.18 1.20 1.20 87 1011.1
20260507070039 65 172 0.0 0.0 0.19 1.19 1.19 87 1011.3
20260507065531 65 172 0.0 0.0 0.19 1.18 1.18 87 1011.7
20260507065039 65 172 0.0 0.0 0.19 1.16 1.16 87 1011.9
20260507064527 65 172 0.0 0.0 0.20 1.15 1.15 87 1012.1
20260507064027 65 172 0.0 0.0 0.20 1.14 1.14 87 1012.0